Volver al catálogo

STARLINK-36677

ActivoComunicacionesVLEO
NORAD 68178·PAYLOAD·🇺🇸 United States

Lanzado Mar 14, 2026 desde Vandenberg Space Force Base

Loading…

Próximos Pases (próximas 24 horas)

TLE

ActualizadoSource: CelesTrak SupGP

Época: Sep 14, 2026, 21:16 UTC

1 68178C 26050M   26257.88659722 -.00009795  00000+0 -28950-3 0  2577
2 68178  53.1576 103.9547 0001138  87.0994   5.6920 15.34384865    18

Sigue STARLINK-36677 en tiempo real con AllMySat

Download on the App Store